JAF248 EBBR-EDDP

Flight info

Callsign JAF248
Flight time 0h 58m
Altitude 35000
Route SPI Y862 KENUM N853 ONUNE DCT TOLGI DCT NORTA DCT ADMOS T959 KOJEC KOJEC1R
Aircraft MD82/M-SDFGHRWY/C

Departure

Time 2026-05-07 17:56
Airport Brussels Airport (EBBR)

Arrival

Time 2026-05-07 18:55
Airport Leipzig/Halle Airport (EDDP)
Time Latitude Longitude Altitude Speed Heading
2026-05-07 17:34 50.90379 4.48484 194 ft 0 kts 155°
2026-05-07 17:35 50.90378 4.48484 194 ft 0 kts 155°
2026-05-07 17:38 50.90378 4.48485 194 ft 0 kts 155°
2026-05-07 17:39 50.90377 4.48485 194 ft 0 kts 155°
2026-05-07 17:43 50.90376 4.48485 194 ft 0 kts 155°
2026-05-07 17:43 50.90376 4.48486 194 ft 0 kts 155°
2026-05-07 17:47 50.90375 4.48486 194 ft 0 kts 155°
2026-05-07 17:48 50.90381 4.48482 194 ft 2 kts 155°
2026-05-07 17:48 50.90396 4.48471 194 ft 3 kts 155°
2026-05-07 17:48 50.90414 4.48458 194 ft 3 kts 155°
2026-05-07 17:49 50.90433 4.48445 194 ft 3 kts 155°
2026-05-07 17:49 50.90452 4.48431 194 ft 3 kts 155°
2026-05-07 17:49 50.90459 4.48426 194 ft 0 kts 146°
2026-05-07 17:50 50.90460 4.48426 194 ft 7 kts 67°
2026-05-07 17:50 50.90462 4.48424 194 ft 0 kts 67°
2026-05-07 17:51 50.90462 4.48425 194 ft 0 kts 67°
2026-05-07 17:51 50.90469 4.48451 194 ft 8 kts 67°
2026-05-07 17:52 50.90524 4.48582 194 ft 19 kts 23°
2026-05-07 17:52 50.90601 4.48641 194 ft 11 kts 50°
2026-05-07 17:52 50.90636 4.48756 194 ft 12 kts 66°
2026-05-07 17:52 50.90671 4.48879 194 ft 13 kts 65°
2026-05-07 17:53 50.90711 4.49018 194 ft 15 kts 65°
2026-05-07 17:53 50.90756 4.49172 194 ft 16 kts 65°
2026-05-07 17:53 50.90805 4.49340 194 ft 17 kts 65°
2026-05-07 17:53 50.90857 4.49519 194 ft 19 kts 65°
2026-05-07 17:54 50.90909 4.49661 194 ft 13 kts 23°
2026-05-07 17:54 50.90919 4.49665 194 ft 2 kts 12°
2026-05-07 17:54 50.90971 4.49630 194 ft 15 kts 302°
2026-05-07 17:54 50.90982 4.49491 194 ft 0 kts 270°
2026-05-07 17:55 50.90982 4.49490 194 ft 0 kts 270°
2026-05-07 17:55 50.90954 4.49232 194 ft 50 kts 245°
2026-05-07 17:56 50.90746 4.48517 194 ft 96 kts 246°
2026-05-07 17:56 50.90403 4.47330 194 ft 142 kts 246°
2026-05-07 17:56 50.89927 4.45723 535 ft 169 kts 243°
2026-05-07 17:56 50.89419 4.44058 1238 ft 170 kts 246°
2026-05-07 17:57 50.88908 4.42297 1541 ft 181 kts 247°
2026-05-07 17:57 50.88542 4.41059 1769 ft 193 kts 243°
2026-05-07 17:57 50.87170 4.39071 2302 ft 212 kts 207°
2026-05-07 17:57 50.85728 4.38449 2799 ft 220 kts 185°
2026-05-07 17:58 50.84164 4.38725 3154 ft 234 kts 161°
2026-05-07 17:58 50.82737 4.40053 3528 ft 245 kts 135°
2026-05-07 17:58 50.81808 4.42333 3964 ft 252 kts 111°
2026-05-07 17:58 50.81318 4.45002 4509 ft 255 kts 102°
2026-05-07 17:59 50.81014 4.47773 5064 ft 258 kts 98°
2026-05-07 17:59 50.80778 4.50604 5660 ft 261 kts 97°
2026-05-07 17:59 50.80549 4.53472 6276 ft 263 kts 97°
2026-05-07 17:59 50.80309 4.56370 6759 ft 271 kts 97°
2026-05-07 18:00 50.80049 4.59345 6895 ft 273 kts 98°
2026-05-07 18:00 50.79770 4.62301 6972 ft 270 kts 98°
2026-05-07 18:00 50.79486 4.65230 6994 ft 270 kts 98°
2026-05-07 18:00 50.79263 4.68168 7079 ft 267 kts 96°
2026-05-07 18:01 50.79081 4.71128 7525 ft 273 kts 95°
2026-05-07 18:01 50.78911 4.74116 8269 ft 274 kts 95°
2026-05-07 18:01 50.78745 4.77136 8924 ft 277 kts 95°
2026-05-07 18:01 50.78569 4.80187 9599 ft 280 kts 95°
2026-05-07 18:02 50.78176 4.86504 10415 ft 306 kts 96°
2026-05-07 18:02 50.77940 4.89957 10577 ft 325 kts 97°
2026-05-07 18:02 50.77686 4.93599 10817 ft 339 kts 96°
2026-05-07 18:03 50.77426 4.97332 11342 ft 343 kts 97°
2026-05-07 18:03 50.77161 5.01057 11835 ft 347 kts 97°
2026-05-07 18:03 50.76889 5.04872 12355 ft 351 kts 97°
2026-05-07 18:03 50.76627 5.08720 12944 ft 353 kts 96°
2026-05-07 18:04 50.76374 5.12591 13436 ft 357 kts 97°
2026-05-07 18:04 50.76106 5.16505 14016 ft 359 kts 97°
2026-05-07 18:04 50.75830 5.20439 14540 ft 362 kts 97°
2026-05-07 18:04 50.75561 5.24407 15096 ft 365 kts 96°
2026-05-07 18:05 50.75292 5.28415 15636 ft 369 kts 97°
2026-05-07 18:05 50.75011 5.32447 16226 ft 371 kts 97°
2026-05-07 18:05 50.74723 5.36512 16797 ft 374 kts 97°
2026-05-07 18:05 50.74430 5.40613 17347 ft 378 kts 97°
2026-05-07 18:06 50.74126 5.44759 17931 ft 380 kts 97°
2026-05-07 18:06 50.73811 5.48923 18485 ft 384 kts 97°
2026-05-07 18:06 50.73502 5.53122 19040 ft 386 kts 97°
2026-05-07 18:06 50.73185 5.57360 19519 ft 391 kts 98°
2026-05-07 18:07 50.72858 5.61632 20063 ft 393 kts 97°
2026-05-07 18:07 50.72540 5.65937 20550 ft 396 kts 97°
2026-05-07 18:07 50.72216 5.70290 20896 ft 403 kts 98°
2026-05-07 18:07 50.71886 5.74728 20989 ft 409 kts 97°
2026-05-07 18:08 50.71567 5.79123 21000 ft 407 kts 97°
2026-05-07 18:08 50.71247 5.83589 20999 ft 403 kts 97°
2026-05-07 18:08 50.70925 5.87920 20999 ft 402 kts 98°
2026-05-07 18:08 50.70593 5.92292 21031 ft 402 kts 97°
2026-05-07 18:09 50.70266 5.96711 21317 ft 407 kts 98°
2026-05-07 18:09 50.69924 6.01145 21881 ft 407 kts 98°
2026-05-07 18:09 50.69570 6.05602 22311 ft 411 kts 98°
2026-05-07 18:09 50.69227 6.10075 22774 ft 413 kts 96°
2026-05-07 18:10 50.69349 6.14616 23166 ft 418 kts 80°
2026-05-07 18:10 50.70109 6.19055 23597 ft 420 kts 71°
2026-05-07 18:10 50.71286 6.23290 23962 ft 424 kts 60°
2026-05-07 18:10 50.72990 6.27082 24384 ft 425 kts 49°
2026-05-07 18:11 50.75091 6.30353 24780 ft 426 kts 40°
2026-05-07 18:11 50.76640 6.32367 25041 ft 427 kts 38°
2026-05-07 18:11 50.79790 6.36127 25556 ft 429 kts 35°
2026-05-07 18:11 50.82174 6.38970 25953 ft 431 kts 36°
2026-05-07 18:12 50.84537 6.41932 26286 ft 434 kts 38°
2026-05-07 18:12 50.86848 6.45011 26672 ft 435 kts 40°
2026-05-07 18:12 50.89120 6.48205 27007 ft 438 kts 41°
2026-05-07 18:12 50.91362 6.51491 27353 ft 440 kts 42°
2026-05-07 18:13 50.93579 6.54836 27700 ft 442 kts 43°
2026-05-07 18:13 50.95810 6.58217 28065 ft 443 kts 43°
2026-05-07 18:13 50.98046 6.61592 28372 ft 445 kts 43°
2026-05-07 18:13 51.00302 6.64989 28699 ft 447 kts 42°
2026-05-07 18:14 51.01798 6.67229 28894 ft 448 kts 43°
2026-05-07 18:14 51.03930 6.70839 29276 ft 448 kts 48°
2026-05-07 18:14 51.05898 6.74662 29732 ft 446 kts 51°
2026-05-07 18:14 51.07751 6.78618 30111 ft 445 kts 53°
2026-05-07 18:15 51.09534 6.82630 30478 ft 444 kts 54°
2026-05-07 18:15 51.11299 6.86662 30867 ft 443 kts 54°
2026-05-07 18:15 51.13063 6.90670 31241 ft 441 kts 54°
2026-05-07 18:15 51.14842 6.94650 31546 ft 441 kts 53°
2026-05-07 18:16 51.16644 6.98600 31870 ft 440 kts 53°
2026-05-07 18:16 51.18446 7.02461 32232 ft 438 kts 52°
2026-05-07 18:16 51.20279 7.06329 32549 ft 437 kts 52°
2026-05-07 18:16 51.22116 7.10179 32819 ft 437 kts 52°
2026-05-07 18:17 51.23961 7.14038 33143 ft 435 kts 52°
2026-05-07 18:17 51.25778 7.17886 33432 ft 434 kts 52°
2026-05-07 18:17 51.27590 7.21761 33678 ft 434 kts 52°
2026-05-07 18:17 51.29387 7.25623 33947 ft 433 kts 52°
2026-05-07 18:18 51.31180 7.29472 34246 ft 431 kts 52°
2026-05-07 18:18 51.32974 7.33323 34438 ft 432 kts 52°
2026-05-07 18:18 51.34778 7.37167 34615 ft 433 kts 52°
2026-05-07 18:18 51.36561 7.41059 34801 ft 434 kts 57°
2026-05-07 18:19 51.38036 7.45265 35036 ft 434 kts 63°
2026-05-07 18:19 51.40260 7.54313 35090 ft 439 kts 71°
2026-05-07 18:20 51.42019 7.63611 35082 ft 433 kts 73°
2026-05-07 18:20 51.43791 7.72785 35081 ft 430 kts 72°
2026-05-07 18:21 51.45747 7.81844 35082 ft 431 kts 70°
2026-05-07 18:21 51.47842 7.90862 35083 ft 432 kts 69°
2026-05-07 18:22 51.49935 7.99827 35085 ft 431 kts 70°
2026-05-07 18:22 51.51991 8.08876 35089 ft 430 kts 70°
2026-05-07 18:23 51.53970 8.17953 35097 ft 431 kts 71°
2026-05-07 18:23 51.55963 8.27025 35101 ft 431 kts 70°
2026-05-07 18:24 51.57970 8.36096 35105 ft 431 kts 70°
2026-05-07 18:24 51.59962 8.45189 35108 ft 431 kts 70°
2026-05-07 18:25 51.61957 8.54288 35110 ft 431 kts 70°
2026-05-07 18:25 51.62953 8.58848 34939 ft 435 kts 70°
2026-05-07 18:25 51.63973 8.63477 34401 ft 440 kts 70°
2026-05-07 18:25 51.64996 8.68116 33792 ft 438 kts 70°
2026-05-07 18:26 51.65997 8.72736 33170 ft 436 kts 70°
2026-05-07 18:26 51.66974 8.77350 32545 ft 434 kts 71°
2026-05-07 18:26 51.67935 8.81947 31919 ft 431 kts 71°
2026-05-07 18:26 51.68882 8.86517 31295 ft 429 kts 71°
2026-05-07 18:27 51.69824 8.91068 30670 ft 427 kts 71°
2026-05-07 18:27 51.70777 8.95588 30045 ft 425 kts 70°
2026-05-07 18:27 51.71735 9.00075 29420 ft 422 kts 70°
2026-05-07 18:27 51.72693 9.04541 28794 ft 420 kts 70°
2026-05-07 18:28 51.73650 9.08985 28168 ft 418 kts 70°
2026-05-07 18:28 51.74589 9.13406 27543 ft 416 kts 71°
2026-05-07 18:28 51.75517 9.17817 26918 ft 414 kts 71°
2026-05-07 18:28 51.76440 9.22209 26292 ft 412 kts 71°
2026-05-07 18:29 51.77363 9.26571 25667 ft 410 kts 71°
2026-05-07 18:29 51.78284 9.30921 25040 ft 408 kts 71°
2026-05-07 18:29 51.79102 9.35291 24413 ft 406 kts 79°
2026-05-07 18:29 51.79327 9.39816 23791 ft 404 kts 90°
2026-05-07 18:30 51.79121 9.44333 23278 ft 399 kts 97°
2026-05-07 18:30 51.78721 9.48673 23294 ft 380 kts 99°
2026-05-07 18:30 51.78307 9.52756 23554 ft 357 kts 99°
2026-05-07 18:30 51.77950 9.56658 23625 ft 358 kts 98°
2026-05-07 18:31 51.77640 9.60728 23622 ft 363 kts 96°
2026-05-07 18:31 51.77394 9.64734 23614 ft 363 kts 95°
2026-05-07 18:31 51.77196 9.68781 23609 ft 360 kts 94°
2026-05-07 18:31 51.77029 9.72811 23608 ft 359 kts 94°
2026-05-07 18:32 51.76875 9.76841 23608 ft 359 kts 93°
2026-05-07 18:32 51.76743 9.80865 23608 ft 360 kts 93°
2026-05-07 18:32 51.76605 9.84901 23608 ft 360 kts 93°
2026-05-07 18:32 51.76461 9.88934 23608 ft 360 kts 93°
2026-05-07 18:33 51.76313 9.92966 23608 ft 360 kts 93°
2026-05-07 18:33 51.76164 9.96994 23607 ft 360 kts 93°
2026-05-07 18:33 51.76013 10.01030 23607 ft 360 kts 93°
2026-05-07 18:33 51.75860 10.05066 23607 ft 360 kts 94°
2026-05-07 18:34 51.75705 10.09093 23607 ft 360 kts 94°
2026-05-07 18:34 51.75531 10.13123 23607 ft 360 kts 94°
2026-05-07 18:34 51.75343 10.17151 23607 ft 360 kts 94°
2026-05-07 18:34 51.75166 10.21178 23606 ft 360 kts 94°
2026-05-07 18:35 51.75000 10.25202 23641 ft 360 kts 94°
2026-05-07 18:35 51.74832 10.29300 23720 ft 373 kts 94°
2026-05-07 18:35 51.74639 10.33539 23884 ft 386 kts 94°
2026-05-07 18:35 51.74439 10.37978 23563 ft 409 kts 94°
2026-05-07 18:36 51.74241 10.42613 22972 ft 417 kts 94°
2026-05-07 18:36 51.74048 10.47258 22331 ft 413 kts 94°
2026-05-07 18:36 51.73858 10.51860 21682 ft 409 kts 94°
2026-05-07 18:36 51.73668 10.56428 21031 ft 406 kts 94°
2026-05-07 18:37 51.73477 10.60953 20381 ft 403 kts 94°
2026-05-07 18:37 51.73285 10.65439 19731 ft 400 kts 94°
2026-05-07 18:37 51.73084 10.69897 19108 ft 396 kts 94°
2026-05-07 18:37 51.72863 10.74261 18939 ft 381 kts 94°
2026-05-07 18:38 51.72658 10.78406 19025 ft 365 kts 94°
2026-05-07 18:38 51.72454 10.82493 19085 ft 368 kts 96°
2026-05-07 18:38 51.71926 10.86562 19105 ft 372 kts 105°
2026-05-07 18:38 51.71108 10.90512 19109 ft 371 kts 110°
2026-05-07 18:39 51.70129 10.94353 19108 ft 370 kts 113°
2026-05-07 18:39 51.69029 10.98112 19108 ft 371 kts 117°
2026-05-07 18:39 51.67789 11.01738 19125 ft 371 kts 120°
2026-05-07 18:39 51.66460 11.05374 18940 ft 382 kts 121°
2026-05-07 18:40 51.65003 11.08989 18506 ft 385 kts 126°
2026-05-07 18:40 51.63377 11.12386 17932 ft 383 kts 129°
2026-05-07 18:40 51.61667 11.15690 17222 ft 383 kts 130°
2026-05-07 18:40 51.59803 11.18752 16494 ft 384 kts 141°
2026-05-07 18:41 51.57558 11.21050 15775 ft 383 kts 152°
2026-05-07 18:41 51.55151 11.22859 15055 ft 382 kts 157°
2026-05-07 18:41 51.52686 11.24438 14332 ft 381 kts 160°
2026-05-07 18:41 51.50192 11.25905 13605 ft 380 kts 161°
2026-05-07 18:42 51.47703 11.27304 12880 ft 378 kts 161°
2026-05-07 18:42 51.45215 11.28670 12153 ft 376 kts 161°
2026-05-07 18:42 51.42744 11.30008 11428 ft 374 kts 161°
2026-05-07 18:42 51.40276 11.31327 10700 ft 372 kts 161°
2026-05-07 18:43 51.37861 11.32600 9985 ft 369 kts 161°
2026-05-07 18:43 51.35392 11.33879 9249 ft 367 kts 161°
2026-05-07 18:43 51.33002 11.35097 8533 ft 364 kts 161°
2026-05-07 18:43 51.30602 11.36303 7794 ft 357 kts 161°
2026-05-07 18:44 51.28371 11.37796 7062 ft 340 kts 148°
2026-05-07 18:44 51.26588 11.40128 6339 ft 326 kts 131°
2026-05-07 18:44 51.25367 11.43069 5619 ft 313 kts 114°
2026-05-07 18:44 51.24587 11.46248 4902 ft 303 kts 107°
2026-05-07 18:45 51.24000 11.49439 4178 ft 297 kts 104°
2026-05-07 18:45 51.23496 11.52595 3452 ft 291 kts 103°
2026-05-07 18:45 51.23029 11.55715 2726 ft 287 kts 102°
2026-05-07 18:45 51.22601 11.58807 1997 ft 283 kts 97°
2026-05-07 18:46 51.22699 11.61855 1601 ft 266 kts 74°
2026-05-07 18:46 51.23422 11.64279 2045 ft 217 kts 56°
2026-05-07 18:46 51.24273 11.66096 2969 ft 200 kts 50°
2026-05-07 18:46 51.25181 11.67779 3980 ft 200 kts 48°
2026-05-07 18:47 51.26120 11.69435 4877 ft 207 kts 47°
2026-05-07 18:47 51.27163 11.71252 5233 ft 237 kts 47°
2026-05-07 18:47 51.28315 11.73231 4988 ft 248 kts 44°
2026-05-07 18:47 51.29771 11.74703 4420 ft 249 kts 20°
2026-05-07 18:48 51.31452 11.75133 3979 ft 244 kts
2026-05-07 18:48 51.33132 11.74962 3564 ft 237 kts 354°
2026-05-07 18:48 51.34729 11.74808 3212 ft 222 kts
2026-05-07 18:48 51.36151 11.75603 2745 ft 215 kts 30°
2026-05-07 18:49 51.37200 11.77193 2637 ft 199 kts 48°
2026-05-07 18:49 51.38030 11.78858 2623 ft 189 kts 51°
2026-05-07 18:49 51.38833 11.80540 2685 ft 186 kts 52°
2026-05-07 18:49 51.39265 11.82521 2663 ft 195 kts 85°
2026-05-07 18:50 51.39347 11.84674 2718 ft 197 kts 82°
2026-05-07 18:50 51.39563 11.86836 2726 ft 198 kts 80°
2026-05-07 18:50 51.39730 11.89026 2728 ft 198 kts 83°
2026-05-07 18:50 51.39833 11.91226 2729 ft 199 kts 85°
2026-05-07 18:51 51.39918 11.93437 2730 ft 199 kts 85°
2026-05-07 18:51 51.40008 11.95588 2707 ft 184 kts 85°
2026-05-07 18:51 51.40095 11.97528 2651 ft 167 kts 84°
2026-05-07 18:51 51.40181 11.99403 2654 ft 171 kts 84°
2026-05-07 18:52 51.40269 12.01307 2657 ft 171 kts 84°
2026-05-07 18:52 51.40353 12.03187 2616 ft 168 kts 84°
2026-05-07 18:52 51.40437 12.05011 2444 ft 157 kts 84°
2026-05-07 18:52 51.40518 12.06734 2204 ft 155 kts 84°
2026-05-07 18:53 51.40598 12.08437 1981 ft 151 kts 84°
2026-05-07 18:53 51.40676 12.10111 1775 ft 150 kts 83°
2026-05-07 18:53 51.40751 12.11782 1571 ft 150 kts 84°
2026-05-07 18:53 51.40830 12.13433 1372 ft 149 kts 83°
2026-05-07 18:54 51.40913 12.15055 1176 ft 147 kts 83°
2026-05-07 18:54 51.40995 12.16690 991 ft 149 kts 84°
2026-05-07 18:54 51.41078 12.18354 756 ft 150 kts 85°
2026-05-07 18:54 51.41153 12.19976 575 ft 147 kts 88°
2026-05-07 18:55 51.41207 12.21500 475 ft 112 kts 81°
2026-05-07 18:55 51.41248 12.22365 475 ft 59 kts 85°
2026-05-07 18:55 51.41277 12.22949 475 ft 42 kts 86°
2026-05-07 18:55 51.41326 12.23250 475 ft 17 kts 359°
2026-05-07 18:56 51.41400 12.23243 475 ft 3 kts 356°
2026-05-07 18:56 51.41461 12.23237 475 ft 12 kts 355°
2026-05-07 18:56 51.41490 12.23234 475 ft 1 kts 356°
2026-05-07 18:56 51.41498 12.23233 475 ft 3 kts 356°
2026-05-07 18:57 51.41507 12.23232 475 ft 0 kts 356°
2026-05-07 18:57 51.41512 12.23231 475 ft 2 kts 356°
2026-05-07 18:57 51.41518 12.23231 475 ft 0 kts 356°
2026-05-07 18:58 51.41533 12.23229 475 ft 8 kts 356°
2026-05-07 18:58 51.41608 12.23159 475 ft 17 kts 297°
2026-05-07 18:58 51.41629 12.23036 475 ft 11 kts 286°
2026-05-07 18:58 51.41652 12.22912 475 ft 12 kts 285°
2026-05-07 18:59 51.41677 12.22771 475 ft 14 kts 285°
2026-05-07 18:59 51.41705 12.22613 475 ft 15 kts 288°
2026-05-07 18:59 51.41739 12.22442 475 ft 17 kts 288°
2026-05-07 18:59 51.41773 12.22266 475 ft 13 kts 313°
2026-05-07 19:00 51.41851 12.22253 475 ft 5 kts 13°
2026-05-07 19:00 51.41859 12.22257 475 ft 0 kts 14°
2026-05-07 19:03 51.41860 12.22257 475 ft 0 kts 14°
2026-05-07 19:06 51.41860 12.22258 475 ft 0 kts 14°
2026-05-07 19:06 51.41861 12.22258 475 ft 0 kts 14°
2026-05-07 19:10 51.41862 12.22258 475 ft 0 kts 14°
2026-05-07 19:14 51.41863 12.22258 475 ft 0 kts 14°
2026-05-07 19:15 51.41863 12.22259 475 ft 0 kts 14°
2026-05-07 19:17 51.41864 12.22259 475 ft 0 kts 14°
2026-05-07 19:21 51.41865 12.22259 475 ft 0 kts 14°
2026-05-07 19:24 51.41865 12.22260 475 ft 0 kts 14°
2026-05-07 19:25 51.41866 12.22260 475 ft 0 kts 14°
2026-05-07 19:29 51.41867 12.22260 475 ft 0 kts 14°